FW9692 Weather Reports


time (UTC)temp
C
wind
direction
speed
KPH
gust
KPH
rain 1hr
cm
rain 24hr
cm
rain mn
cm
humidity
%
barometer
mb
20260510110044 21 238 27.4 32.2 0.00 0.00 0.00 28 995.7
20260510104543 22 235 27.4 35.4 0.00 0.00 0.00 27 995.7
20260510103040 21 242 27.4 32.2 0.00 0.00 0.00 28 995.5
20260510101541 21 236 25.7 32.2 0.00 0.00 0.00 27 995.5
20260510100047 21 230 25.7 30.6 0.00 0.00 0.00 27 995.3
20260510094559 21 232 27.4 30.6 0.00 0.00 0.00 24 995.2
20260510093102 22 227 24.1 30.6 0.00 0.00 0.00 23 995.1
20260510091547 22 216 25.7 30.6 0.00 0.00 0.00 21 995.0
20260510090051 22 223 25.7 30.6 0.00 0.00 0.00 22 995.1
20260510084551 22 221 25.7 32.2 0.00 0.00 0.00 20 995.1
20260510083051 22 216 25.7 32.2 0.00 0.00 0.00 22 995.2
20260510081547 21 205 24.1 30.6 0.00 0.00 0.00 24 995.3
20260510080042 21 214 24.1 30.6 0.00 0.00 0.00 24 995.3
20260510074543 22 221 25.7 30.6 0.00 0.00 0.00 24 995.4
20260510073046 22 217 27.4 32.2 0.00 0.00 0.00 24 995.5
20260510071548 22 211 24.1 29.0 0.00 0.00 0.00 23 995.5
20260510070035 23 207 25.7 30.6 0.00 0.00 0.00 22 995.7
20260510064533 23 205 24.1 29.0 0.00 0.00 0.00 22 995.6
20260510063033 23 208 24.1 32.2 0.00 0.00 0.00 22 995.9
20260510061533 23 192 22.5 27.4 0.00 0.00 0.00 22 995.9
20260510060030 23 192 22.5 29.0 0.00 0.00 0.00 22 996.0
20260510054532 25 192 25.7 35.4 0.00 0.00 0.00 21 996.1
20260510053048 25 175 27.4 35.4 0.00 0.00 0.00 20 996.0
20260510051529 25 178 32.2 40.2 0.00 0.00 0.00 19 996.0
20260510050028 26 175 32.2 40.2 0.00 0.00 0.00 19 996.2
20260510044528 26 167 33.8 41.8 0.00 0.00 0.00 18 996.2
20260510043039 26 180 33.8 41.8 0.00 0.00 0.00 17 996.2
20260510041529 27 167 32.2 43.5 0.00 0.00 0.00 15 996.2
20260510040040 27 170 32.2 38.6 0.00 0.00 0.00 14 996.2
20260510034534 28 186 29.0 35.4 0.00 0.00 0.00 14 996.1
20260510033033 28 170 32.2 35.4 0.00 0.00 0.00 13 995.9
20260510031534 28 167 30.6 35.4 0.00 0.00 0.00 13 995.8
20260510030018 29 171 27.4 37.0 0.00 0.00 0.00 13 995.7
20260510024518 29 163 27.4 32.2 0.00 0.00 0.00 13 995.6
20260510023016 30 169 20.9 30.6 0.00 0.00 0.00 12 995.3
20260510021531 30 154 22.5 27.4 0.00 0.00 0.00 11 995.3
20260510020016 30 153 20.9 27.4 0.00 0.00 0.00 12 995.1
20260510014521 31 159 20.9 27.4 0.00 0.00 0.00 10 995.0
20260510013024 31 151 22.5 29.0 0.00 0.00 0.00 10 994.9
20260510011522 32 144 27.4 32.2 0.00 0.00 0.00 10 994.7
20260510010019 32 132 19.3 30.6 0.00 0.00 0.00 9 994.7
20260510004526 33 203 11.3 25.7 0.00 0.00 0.00 8 994.8
20260510003026 33 187 12.9 25.7 0.00 0.00 0.00 8 994.8
20260510001522 33 193 8.0 32.2 0.00 0.00 0.00 8 994.8
20260510000028 33 177 17.7 25.7 0.00 0.00 0.00 8 994.9
20260509234519 33 173 16.1 33.8 0.00 0.00 0.00 8 994.9
20260509233016 33 198 16.1 29.0 0.00 0.00 0.00 8 995.1
20260509231515 33 243 14.5 25.7 0.00 0.00 0.00 8 995.2
20260509230015 33 221 12.9 22.5 0.00 0.00 0.00 8 995.3
20260509224512 33 210 11.3 24.1 0.00 0.00 0.00 8 995.5
20260509223016 33 213 17.7 37.0 0.00 0.00 0.00 8 995.6
20260509221515 33 301 4.8 24.1 0.00 0.00 0.00 8 995.8
20260509220017 33 219 14.5 25.7 0.00 0.00 0.00 8 995.9
20260509214508 33 208 22.5 41.8 0.00 0.00 0.00 9 996.1
20260509213051 33 170 9.7 25.7 0.00 0.00 0.00 9 996.3
20260509211549 33 103 9.7 29.0 0.00 0.00 0.00 9 996.6
20260509210049 33 171 14.5 17.7 0.00 0.00 0.00 9 996.9
20260509204546 33 232 8.0 16.1 0.00 0.00 0.00 9 997.3
20260509203100 32 221 11.3 29.0 0.00 0.00 0.00 10 997.6
20260509201548 32 211 4.8 19.3 0.00 0.00 0.00 11 997.9
20260509200047 32 226 16.1 33.8 0.00 0.00 0.00 12 998.1
20260509194548 32 205 3.2 19.3 0.00 0.00 0.00 11 998.1
20260509193040 32 230 19.3 32.2 0.00 0.00 0.00 11 998.4
20260509191556 32 225 16.1 29.0 0.00 0.00 0.00 12 998.6
20260509190035 31 142 3.2 22.5 0.00 0.00 0.00 13 998.7
20260509184544 31 265 12.9 35.4 0.00 0.00 0.00 12 999.1
20260509183052 31 228 24.1 38.6 0.00 0.00 0.00 14 999.3
20260509181542 31 207 24.1 33.8 0.00 0.00 0.00 14 999.6
20260509180041 30 178 19.3 29.0 0.00 0.00 0.00 16 999.7
20260509174558 30 219 25.7 33.8 0.00 0.00 0.00 17 999.9
20260509173019 30 141 17.7 41.8 0.00 0.00 0.00 18 1000.1
20260509171517 29 182 25.7 33.8 0.00 0.00 0.00 19 1000.3
20260509170022 28 175 17.7 27.4 0.00 0.00 0.00 20 1000.5
20260509164514 28 169 19.3 30.6 0.00 0.00 0.00 20 1000.6
20260509163032 27 168 22.5 30.6 0.00 0.00 0.00 21 1000.6
20260509161518 27 185 25.7 32.2 0.00 0.00 0.00 22 1000.6
20260509160015 26 169 20.9 29.0 0.00 0.00 0.00 24 1000.7
20260509154511 25 185 19.3 29.0 0.00 0.00 0.00 26 1000.9
20260509153022 24 186 19.3 24.1 0.00 0.00 0.00 27 1001.0
20260509151514 23 160 22.5 29.0 0.00 0.00 0.00 28 1001.2
20260509150012 23 166 24.1 30.6 0.00 0.00 0.00 29 1001.4
20260509144507 22 192 16.1 19.3 0.00 0.00 0.00 31 1001.4
20260509143011 21 195 17.7 22.5 0.00 0.00 0.00 33 1001.6
20260509141511 20 198 16.1 20.9 0.00 0.00 0.00 36 1001.5
20260509140012 19 213 19.3 22.5 0.00 0.00 0.00 36 1001.4
20260509134508 19 207 17.7 27.4 0.00 0.00 0.00 36 1001.3
20260509133044 18 195 19.3 25.7 0.00 0.00 0.00 36 1001.2
20260509131543 18 191 14.5 17.7 0.00 0.00 0.00 39 1001.1
20260509130046 17 171 16.1 19.3 0.00 0.00 0.00 41 1001.0
20260509124548 17 159 17.7 22.5 0.00 0.00 0.00 42 1001.0
20260509123006 16 173 14.5 20.9 0.00 0.00 0.00 43 1000.6
20260509121509 16 196 16.1 22.5 0.00 0.00 0.00 45 1000.3
20260509120002 16 165 16.1 17.7 0.00 0.00 0.00 45 1000.3
20260509114603 17 156 11.3 20.9 0.00 0.00 0.00 43 1000.3
20260509113058 18 146 14.5 20.9 0.00 0.00 0.00 42 1000.2
20260509111553 18 140 16.1 19.3 0.00 0.00 0.00 42 1000.1